Time,TemperatureF,DewpointF,PressureIn,WindDirection,WindDirectionDegrees,WindSpeedMPH,WindSpeedGustMPH,Humidity,HourlyPrecipIn,Conditions,Clouds,dailyrainin,SolarRadiationWatts/m^2,SoftwareType,DateUTC
2013-01-13 00:04:00,37.5,33.4,29.96,SE,128,4.0,5.0,85,0.00,,,0.00,0,WeatherCatV1.13B101,2013-01-13 00:04:00,
2013-01-13 00:09:00,37.5,33.4,29.96,SE,124,1.0,5.0,85,0.00,,,0.00,0,WeatherCatV1.13B101,2013-01-13 00:09:00,
2013-01-13 00:14:00,37.6,33.5,29.96,ESE,121,0.0,7.0,85,0.00,,,0.00,0,WeatherCatV1.13B101,2013-01-13 00:14:00,
2013-01-13 00:19:00,37.6,33.5,29.96,SE,130,0.0,4.0,85,0.00,,,0.00,0,WeatherCatV1.13B101,2013-01-13 00:19:00,
2013-01-13 00:24:00,37.6,33.5,29.96,SE,144,2.0,4.0,85,0.00,,,0.00,0,WeatherCatV1.13B101,2013-01-13 00:24:00,
2013-01-13 00:29:00,37.6,33.5,29.96,ESE,121,2.0,6.0,85,0.00,,,0.00,0,WeatherCatV1.13B101,2013-01-13 00:29:00,
2013-01-13 00:34:00,37.6,33.5,29.96,ESE,123,0.0,3.0,85,0.00,,,0.00,0,WeatherCatV1.13B101,2013-01-13 00:34:00,
2013-01-13 00:39:00,37.6,33.5,29.96,NNW,346,1.0,6.0,85,0.00,,,0.00,0,WeatherCatV1.13B101,2013-01-13 00:39:00,
2013-01-13 00:44:00,37.6,33.5,29.96,SE,135,2.0,3.0,85,0.00,,,0.00,0,WeatherCatV1.13B101,2013-01-13 00:44:00,
2013-01-13 00:49:00,37.5,33.4,29.96,SSE,147,0.0,4.0,85,0.00,,,0.00,0,WeatherCatV1.13B101,2013-01-13 00:49:00,
2013-01-13 00:54:00,37.4,33.0,29.97,SE,127,0.0,3.0,84,0.00,,,0.00,0,WeatherCatV1.13B101,2013-01-13 00:54:00,
2013-01-13 00:59:00,37.2,32.8,29.97,ESE,103,1.0,1.0,84,0.00,,,0.00,0,WeatherCatV1.13B101,2013-01-13 00:59:00,
2013-01-13 01:04:00,37.0,32.6,29.97,SE,130,0.0,2.0,84,0.00,,,0.00,0,WeatherCatV1.13B101,2013-01-13 01:04:00,
2013-01-13 01:09:00,36.9,32.5,29.97,SE,134,1.0,2.0,84,0.00,,,0.00,0,WeatherCatV1.13B101,2013-01-13 01:09:00,
2013-01-13 01:14:00,36.8,32.7,29.97,SE,130,1.0,3.0,85,0.00,,,0.00,0,WeatherCatV1.13B101,2013-01-13 01:14:00,
2013-01-13 01:19:00,36.8,32.4,29.97,SE,134,0.0,4.0,84,0.00,,,0.00,0,WeatherCatV1.13B101,2013-01-13 01:19:00,
2013-01-13 01:24:00,36.8,32.7,29.98,SE,146,1.0,3.0,85,0.00,,,0.00,0,WeatherCatV1.13B101,2013-01-13 01:24:00,
2013-01-13 01:29:00,36.8,32.4,29.98,SE,130,2.0,6.0,84,0.00,,,0.00,0,WeatherCatV1.13B101,2013-01-13 01:29:00,
2013-01-13 01:34:00,36.8,32.4,29.98,NW,319,0.0,2.0,84,0.00,,,0.00,0,WeatherCatV1.13B101,2013-01-13 01:34:00,
2013-01-13 01:39:00,36.9,32.5,29.98,ESE,119,0.0,3.0,84,0.00,,,0.00,0,WeatherCatV1.13B101,2013-01-13 01:39:00,
2013-01-13 01:44:00,36.9,32.5,29.98,SE,136,6.0,6.0,84,0.00,,,0.00,0,WeatherCatV1.13B101,2013-01-13 01:44:00,
2013-01-13 01:49:00,36.9,32.5,29.98,SE,140,0.0,7.0,84,0.00,,,0.00,0,WeatherCatV1.13B101,2013-01-13 01:49:00,
2013-01-13 01:54:00,36.9,32.5,29.98,South,177,1.0,6.0,84,0.00,,,0.00,0,WeatherCatV1.13B101,2013-01-13 01:54:00,
2013-01-13 01:59:00,36.9,32.5,29.99,SE,146,3.0,3.0,84,0.00,,,0.00,0,WeatherCatV1.13B101,2013-01-13 01:59:00,
2013-01-13 02:04:00,36.8,32.1,29.99,SE,128,1.0,3.0,83,0.00,,,0.00,0,WeatherCatV1.13B101,2013-01-13 02:04:00,
2013-01-13 02:09:00,36.8,32.1,29.99,SSE,163,1.0,5.0,83,0.00,,,0.00,0,WeatherCatV1.13B101,2013-01-13 02:09:00,
2013-01-13 02:14:00,36.8,32.1,30.00,SE,127,2.0,4.0,83,0.00,,,0.00,0,WeatherCatV1.13B101,2013-01-13 02:14:00,
2013-01-13 02:19:00,36.8,32.1,29.99,SE,128,0.0,4.0,83,0.00,,,0.00,0,WeatherCatV1.13B101,2013-01-13 02:19:00,
2013-01-13 02:24:00,36.7,32.0,30.00,SE,143,7.0,7.0,83,0.00,,,0.00,0,WeatherCatV1.13B101,2013-01-13 02:24:00,
2013-01-13 02:29:00,36.7,32.0,30.00,SE,136,2.0,3.0,83,0.00,,,0.00,0,WeatherCatV1.13B101,2013-01-13 02:29:00,
2013-01-13 02:34:00,36.7,32.0,30.00,South,175,3.0,7.0,83,0.00,,,0.00,0,WeatherCatV1.13B101,2013-01-13 02:34:00,
2013-01-13 02:39:00,36.6,31.6,30.00,SSE,163,1.0,10.0,82,0.00,,,0.00,0,WeatherCatV1.13B101,2013-01-13 02:39:00,
2013-01-13 02:44:00,36.6,31.6,30.00,SE,135,0.0,3.0,82,0.00,,,0.00,0,WeatherCatV1.13B101,2013-01-13 02:44:00,
2013-01-13 02:49:00,36.6,31.6,30.00,SE,134,3.0,7.0,82,0.00,,,0.00,0,WeatherCatV1.13B101,2013-01-13 02:49:00,
2013-01-13 02:54:00,36.6,31.6,30.00,SE,128,0.0,4.0,82,0.00,,,0.00,0,WeatherCatV1.13B101,2013-01-13 02:54:00,
2013-01-13 02:59:00,36.6,31.6,30.00,SE,144,1.0,4.0,82,0.00,,,0.00,0,WeatherCatV1.13B101,2013-01-13 02:59:00,
2013-01-13 03:04:00,36.6,31.6,30.00,SE,132,0.0,3.0,82,0.00,,,0.00,0,WeatherCatV1.13B101,2013-01-13 03:04:00,
2013-01-13 03:09:00,36.6,31.6,30.00,SE,138,3.0,3.0,82,0.00,,,0.00,0,WeatherCatV1.13B101,2013-01-13 03:09:00,
2013-01-13 03:14:00,36.6,31.6,30.00,South,175,1.0,5.0,82,0.00,,,0.00,0,WeatherCatV1.13B101,2013-01-13 03:14:00,
2013-01-13 03:19:00,36.6,31.6,30.00,SSW,193,1.0,4.0,82,0.00,,,0.00,0,WeatherCatV1.13B101,2013-01-13 03:19:00,
2013-01-13 03:24:00,36.6,31.6,30.00,South,182,1.0,6.0,82,0.00,,,0.00,0,WeatherCatV1.13B101,2013-01-13 03:24:00,
2013-01-13 03:29:00,36.6,31.6,30.00,SE,132,2.0,2.0,82,0.00,,,0.00,0,WeatherCatV1.13B101,2013-01-13 03:29:00,
2013-01-13 03:34:00,36.5,31.2,30.00,SE,127,3.0,4.0,81,0.00,,,0.00,0,WeatherCatV1.13B101,2013-01-13 03:34:00,
2013-01-13 03:39:00,36.4,31.1,30.00,SSE,149,2.0,4.0,81,0.00,,,0.00,0,WeatherCatV1.13B101,2013-01-13 03:39:00,
2013-01-13 03:44:00,36.4,31.1,30.00,South,174,1.0,2.0,81,0.00,,,0.00,0,WeatherCatV1.13B101,2013-01-13 03:44:00,
2013-01-13 03:49:00,36.4,31.1,30.00,SE,128,3.0,5.0,81,0.00,,,0.00,0,WeatherCatV1.13B101,2013-01-13 03:49:00,
2013-01-13 03:54:00,36.3,31.0,30.01,South,174,1.0,4.0,81,0.00,,,0.00,0,WeatherCatV1.13B101,2013-01-13 03:54:00,
2013-01-13 03:59:00,36.2,30.9,30.01,ESE,103,2.0,7.0,81,0.00,,,0.00,0,WeatherCatV1.13B101,2013-01-13 03:59:00,
2013-01-13 04:04:00,36.2,30.9,30.01,ESE,117,3.0,4.0,81,0.00,,,0.00,0,WeatherCatV1.13B101,2013-01-13 04:04:00,
2013-01-13 04:09:00,36.0,30.7,30.01,SE,144,2.0,2.0,81,0.00,,,0.00,0,WeatherCatV1.13B101,2013-01-13 04:09:00,
2013-01-13 04:14:00,35.9,30.6,30.01,SE,138,1.0,3.0,81,0.00,,,0.00,0,WeatherCatV1.13B101,2013-01-13 04:14:00,
2013-01-13 04:19:00,35.8,30.6,30.01,ESE,119,4.0,4.0,81,0.00,,,0.00,0,WeatherCatV1.13B101,2013-01-13 04:19:00,
2013-01-13 04:24:00,35.7,30.5,30.01,ESE,117,4.0,4.0,81,0.00,,,0.00,0,WeatherCatV1.13B101,2013-01-13 04:24:00,
2013-01-13 04:29:00,35.6,30.4,30.01,SE,130,6.0,6.0,81,0.00,,,0.00,0,WeatherCatV1.13B101,2013-01-13 04:29:00,
2013-01-13 04:34:00,35.6,30.4,30.01,SE,134,0.0,2.0,81,0.00,,,0.00,0,WeatherCatV1.13B101,2013-01-13 04:34:00,
2013-01-13 04:39:00,35.5,30.3,30.01,SE,134,1.0,4.0,81,0.00,,,0.00,0,WeatherCatV1.13B101,2013-01-13 04:39:00,
2013-01-13 04:44:00,35.5,30.3,30.01,ESE,119,0.0,2.0,81,0.00,,,0.00,0,WeatherCatV1.13B101,2013-01-13 04:44:00,
2013-01-13 04:49:00,35.6,30.4,30.01,SE,142,1.0,2.0,81,0.00,,,0.00,0,WeatherCatV1.13B101,2013-01-13 04:49:00,
2013-01-13 04:54:00,35.5,30.3,30.02,ESE,111,1.0,3.0,81,0.00,,,0.00,0,WeatherCatV1.13B101,2013-01-13 04:54:00,
2013-01-13 04:59:00,35.5,30.3,30.02,SE,141,0.0,4.0,81,0.00,,,0.00,0,WeatherCatV1.13B101,2013-01-13 04:59:00,
2013-01-13 05:00:00,35.5,30.0,30.02,SE,136,0.0,4.0,80,0.00,,,0.00,0,WeatherCatV1.13B101,2013-01-13 05:00:00,
2013-01-13 05:05:00,35.4,29.9,30.02,SE,142,1.0,3.0,80,0.00,,,0.00,0,WeatherCatV1.13B101,2013-01-13 05:05:00,
2013-01-13 05:10:00,35.3,29.8,30.02,SW,222,0.0,5.0,80,0.00,,,0.00,0,WeatherCatV1.13B101,2013-01-13 05:10:00,
2013-01-13 05:15:00,35.3,29.8,30.02,East,97,0.0,3.0,80,0.00,,,0.00,0,WeatherCatV1.13B101,2013-01-13 05:15:00,
2013-01-13 05:20:00,35.1,29.6,30.03,SE,138,0.0,4.0,80,0.00,,,0.00,0,WeatherCatV1.13B101,2013-01-13 05:20:00,
2013-01-13 05:25:00,35.1,29.6,30.03,SE,130,0.0,4.0,80,0.00,,,0.00,0,WeatherCatV1.13B101,2013-01-13 05:25:00,
2013-01-13 05:30:00,35.1,29.6,30.03,SE,144,0.0,5.0,80,0.00,,,0.00,0,WeatherCatV1.13B101,2013-01-13 05:30:00,
2013-01-13 05:35:00,35.1,29.6,30.03,SE,135,1.0,4.0,80,0.00,,,0.00,0,WeatherCatV1.13B101,2013-01-13 05:35:00,
2013-01-13 05:40:00,35.2,29.4,30.03,SE,136,0.0,3.0,79,0.00,,,0.00,0,WeatherCatV1.13B101,2013-01-13 05:40:00,
2013-01-13 05:45:00,35.2,29.4,30.03,SE,127,4.0,6.0,79,0.00,,,0.00,0,WeatherCatV1.13B101,2013-01-13 05:45:00,
2013-01-13 05:50:00,35.3,29.5,30.03,SE,132,5.0,5.0,79,0.00,,,0.00,0,WeatherCatV1.13B101,2013-01-13 05:50:00,
2013-01-13 05:55:00,35.4,29.2,30.03,ESE,104,0.0,5.0,78,0.00,,,0.00,0,WeatherCatV1.13B101,2013-01-13 05:55:00,
2013-01-13 06:00:00,35.4,29.2,30.04,SE,136,1.0,2.0,78,0.00,,,0.00,0,WeatherCatV1.13B101,2013-01-13 06:00:00,
2013-01-13 06:05:00,35.4,29.2,30.04,WNW,294,0.0,0.0,78,0.00,,,0.00,0,WeatherCatV1.13B101,2013-01-13 06:05:00,
2013-01-13 06:10:00,35.3,29.5,30.05,SW,224,0.0,1.0,79,0.00,,,0.00,0,WeatherCatV1.13B101,2013-01-13 06:10:00,
2013-01-13 06:15:00,35.1,29.3,30.05,SW,217,1.0,1.0,79,0.00,,,0.00,0,WeatherCatV1.13B101,2013-01-13 06:15:00,
2013-01-13 06:20:00,34.8,29.3,30.05,South,177,0.0,1.0,80,0.00,,,0.00,0,WeatherCatV1.13B101,2013-01-13 06:20:00,
2013-01-13 06:25:00,34.5,29.3,30.05,SSE,165,0.0,0.0,81,0.00,,,0.00,0,WeatherCatV1.13B101,2013-01-13 06:25:00,
2013-01-13 06:30:00,34.1,28.9,30.06,South,174,0.0,2.0,81,0.00,,,0.00,0,WeatherCatV1.13B101,2013-01-13 06:30:00,
2013-01-13 06:35:00,33.8,28.9,30.06,East,87,1.0,1.0,82,0.00,,,0.00,0,WeatherCatV1.13B101,2013-01-13 06:35:00,
2013-01-13 06:40:00,33.5,28.9,30.06,East,87,0.0,1.0,83,0.00,,,0.00,0,WeatherCatV1.13B101,2013-01-13 06:40:00,
2013-01-13 06:45:00,33.3,28.7,30.06,East,88,1.0,1.0,83,0.00,,,0.00,0,WeatherCatV1.13B101,2013-01-13 06:45:00,
2013-01-13 06:50:00,33.1,28.8,30.06,SE,128,0.0,3.0,84,0.00,,,0.00,0,WeatherCatV1.13B101,2013-01-13 06:50:00,
2013-01-13 06:55:00,33.0,28.7,30.06,SE,128,0.0,1.0,84,0.00,,,0.00,0,WeatherCatV1.13B101,2013-01-13 06:55:00,
2013-01-13 07:00:00,32.8,28.5,30.06,SE,126,0.0,0.0,84,0.00,,,0.00,0,WeatherCatV1.13B101,2013-01-13 07:00:00,
2013-01-13 07:05:00,32.6,28.6,30.06,NE,55,0.0,3.0,85,0.00,,,0.00,0,WeatherCatV1.13B101,2013-01-13 07:05:00,
2013-01-13 07:10:00,32.4,28.4,30.06,SE,132,0.0,2.0,85,0.00,,,0.00,0,WeatherCatV1.13B101,2013-01-13 07:10:00,
2013-01-13 07:15:00,32.3,28.3,30.07,SE,128,0.0,0.0,85,0.00,,,0.00,0,WeatherCatV1.13B101,2013-01-13 07:15:00,
2013-01-13 07:20:00,32.2,28.2,30.07,NNW,331,0.0,1.0,85,0.00,,,0.00,0,WeatherCatV1.13B101,2013-01-13 07:20:00,
2013-01-13 07:25:00,32.1,28.1,30.07,South,173,0.0,1.0,85,0.00,,,0.00,0,WeatherCatV1.13B101,2013-01-13 07:25:00,
2013-01-13 07:30:00,32.0,28.3,30.07,South,173,0.0,1.0,86,0.00,,,0.00,0,WeatherCatV1.13B101,2013-01-13 07:30:00,
2013-01-13 07:35:00,31.8,28.1,30.07,South,173,0.0,1.0,86,0.00,,,0.00,0,WeatherCatV1.13B101,2013-01-13 07:35:00,
2013-01-13 07:40:00,31.7,28.0,30.07,SW,235,0.0,1.0,86,0.00,,,0.00,0,WeatherCatV1.13B101,2013-01-13 07:40:00,
2013-01-13 07:45:00,31.7,28.0,30.08,East,80,0.0,3.0,86,0.00,,,0.00,0,WeatherCatV1.13B101,2013-01-13 07:45:00,
2013-01-13 07:50:00,31.6,28.2,30.08,SSW,210,0.0,1.0,87,0.00,,,0.00,0,WeatherCatV1.13B101,2013-01-13 07:50:00,
2013-01-13 07:55:00,31.4,28.0,30.08,ESE,102,1.0,1.0,87,0.00,,,0.00,0,WeatherCatV1.13B101,2013-01-13 07:55:00,
2013-01-13 08:00:00,31.3,27.9,30.08,SSE,159,0.0,1.0,87,0.00,,,0.00,0,WeatherCatV1.13B101,2013-01-13 08:00:00,
2013-01-13 08:05:00,31.2,28.1,30.08,SW,231,0.0,1.0,88,0.00,,,0.00,0,WeatherCatV1.13B101,2013-01-13 08:05:00,
2013-01-13 08:10:00,31.2,28.1,30.08,SE,131,0.0,1.0,88,0.00,,,0.00,5,WeatherCatV1.13B101,2013-01-13 08:10:00,
2013-01-13 08:15:00,31.3,28.2,30.08,SE,132,0.0,0.0,88,0.00,,,0.00,7,WeatherCatV1.13B101,2013-01-13 08:15:00,
2013-01-13 08:20:00,31.3,28.2,30.09,NW,315,0.0,2.0,88,0.00,,,0.00,9,WeatherCatV1.13B101,2013-01-13 08:20:00,
2013-01-13 08:25:00,31.4,28.3,30.09,NNW,333,0.0,2.0,88,0.00,,,0.00,11,WeatherCatV1.13B101,2013-01-13 08:25:00,
2013-01-13 08:30:00,31.4,28.3,30.09,NNW,332,0.0,1.0,88,0.00,,,0.00,12,WeatherCatV1.13B101,2013-01-13 08:30:00,
2013-01-13 08:35:00,31.4,28.3,30.09,NW,305,1.0,1.0,88,0.00,,,0.00,14,WeatherCatV1.13B101,2013-01-13 08:35:00,
2013-01-13 08:40:00,31.5,28.4,30.09,South,177,0.0,1.0,88,0.00,,,0.00,16,WeatherCatV1.13B101,2013-01-13 08:40:00,
2013-01-13 08:45:00,31.5,28.4,30.09,South,177,0.0,1.0,88,0.00,,,0.00,19,WeatherCatV1.13B101,2013-01-13 08:45:00,
2013-01-13 08:50:00,31.6,28.7,30.09,South,178,0.0,1.0,89,0.00,,,0.00,23,WeatherCatV1.13B101,2013-01-13 08:50:00,
2013-01-13 08:55:00,31.6,28.7,30.09,SW,229,0.0,1.0,89,0.00,,,0.00,35,WeatherCatV1.13B101,2013-01-13 08:55:00,
2013-01-13 09:00:00,31.8,28.9,30.10,South,184,0.0,1.0,89,0.00,,,0.00,56,WeatherCatV1.13B101,2013-01-13 09:00:00,
2013-01-13 09:05:00,32.3,29.2,30.10,SW,225,0.0,1.0,88,0.00,,,0.00,67,WeatherCatV1.13B101,2013-01-13 09:05:00,
2013-01-13 09:10:00,32.6,29.4,30.10,NW,307,1.0,1.0,88,0.00,,,0.00,63,WeatherCatV1.13B101,2013-01-13 09:10:00,
2013-01-13 09:15:00,33.0,29.6,30.10,SSW,209,0.0,0.0,87,0.00,,,0.00,60,WeatherCatV1.13B101,2013-01-13 09:15:00,
2013-01-13 09:20:00,33.3,29.9,30.10,SSW,198,0.0,1.0,87,0.00,,,0.00,60,WeatherCatV1.13B101,2013-01-13 09:20:00,
2013-01-13 09:25:00,33.6,30.2,30.10,ESE,109,0.0,0.0,87,0.00,,,0.00,69,WeatherCatV1.13B101,2013-01-13 09:25:00,
2013-01-13 09:30:00,33.8,30.1,30.10,NNW,327,0.0,2.0,86,0.00,,,0.00,70,WeatherCatV1.13B101,2013-01-13 09:30:00,
2013-01-13 09:35:00,34.1,30.4,30.10,South,177,1.0,1.0,86,0.00,,,0.00,67,WeatherCatV1.13B101,2013-01-13 09:35:00,
2013-01-13 09:40:00,34.3,30.3,30.11,ESE,111,1.0,2.0,85,0.00,,,0.00,63,WeatherCatV1.13B101,2013-01-13 09:40:00,
2013-01-13 09:45:00,34.6,30.3,30.11,WSW,245,0.0,1.0,84,0.00,,,0.00,58,WeatherCatV1.13B101,2013-01-13 09:45:00,
2013-01-13 09:50:00,34.7,30.1,30.11,SSE,161,1.0,2.0,83,0.00,,,0.00,53,WeatherCatV1.13B101,2013-01-13 09:50:00,
2013-01-13 09:55:00,34.8,30.2,30.11,SSE,151,0.0,1.0,83,0.00,,,0.00,51,WeatherCatV1.13B101,2013-01-13 09:55:00,
2013-01-13 10:00:00,34.8,30.2,30.11,SSE,148,0.0,1.0,83,0.00,,,0.00,51,WeatherCatV1.13B101,2013-01-13 10:00:00,
2013-01-13 10:05:00,34.7,30.1,30.11,South,169,0.0,2.0,83,0.00,,,0.00,62,WeatherCatV1.13B101,2013-01-13 10:05:00,
2013-01-13 10:10:00,34.6,30.3,30.11,West,273,0.0,1.0,84,0.00,,,0.00,79,WeatherCatV1.13B101,2013-01-13 10:10:00,
2013-01-13 10:15:00,34.7,30.4,30.11,South,169,2.0,2.0,84,0.00,,,0.00,90,WeatherCatV1.13B101,2013-01-13 10:15:00,
2013-01-13 10:20:00,34.7,30.4,30.11,SSW,197,0.0,1.0,84,0.00,,,0.00,93,WeatherCatV1.13B101,2013-01-13 10:20:00,
2013-01-13 10:25:00,34.7,30.4,30.11,North,5,0.0,3.0,84,0.00,,,0.00,125,WeatherCatV1.13B101,2013-01-13 10:25:00,
2013-01-13 10:30:00,34.8,30.5,30.11,NNW,338,0.0,1.0,84,0.00,,,0.00,153,WeatherCatV1.13B101,2013-01-13 10:30:00,
2013-01-13 10:35:00,35.1,31.1,30.11,South,169,0.0,1.0,85,0.00,,,0.00,167,WeatherCatV1.13B101,2013-01-13 10:35:00,
2013-01-13 10:40:00,35.4,31.1,30.11,SSW,192,1.0,1.0,84,0.00,,,0.00,169,WeatherCatV1.13B101,2013-01-13 10:40:00,
2013-01-13 10:45:00,35.7,31.4,30.11,South,177,2.0,2.0,84,0.00,,,0.00,241,WeatherCatV1.13B101,2013-01-13 10:45:00,
2013-01-13 10:50:00,35.9,31.5,30.12,SE,138,0.0,2.0,84,0.00,,,0.00,353,WeatherCatV1.13B101,2013-01-13 10:50:00,
2013-01-13 10:55:00,36.2,31.5,30.11,SE,134,0.0,3.0,83,0.00,,,0.00,323,WeatherCatV1.13B101,2013-01-13 10:55:00,
2013-01-13 11:00:00,36.3,31.6,30.12,South,175,2.0,2.0,83,0.00,,,0.00,202,WeatherCatV1.13B101,2013-01-13 11:00:00,
2013-01-13 11:05:00,36.2,31.5,30.11,NW,310,0.0,5.0,83,0.00,,,0.00,336,WeatherCatV1.13B101,2013-01-13 11:05:00,
2013-01-13 11:10:00,36.2,31.2,30.11,SSE,161,0.0,3.0,82,0.00,,,0.00,114,WeatherCatV1.13B101,2013-01-13 11:10:00,
2013-01-13 11:15:00,35.8,31.2,30.11,SSW,205,1.0,1.0,83,0.00,,,0.00,104,WeatherCatV1.13B101,2013-01-13 11:15:00,
2013-01-13 11:20:00,35.5,31.2,30.11,SSW,207,0.0,2.0,84,0.00,,,0.00,102,WeatherCatV1.13B101,2013-01-13 11:20:00,
2013-01-13 11:25:00,35.5,31.4,30.11,West,271,0.0,1.0,85,0.00,,,0.00,91,WeatherCatV1.13B101,2013-01-13 11:25:00,
2013-01-13 11:30:00,35.3,31.2,30.11,South,180,0.0,1.0,85,0.00,,,0.00,93,WeatherCatV1.13B101,2013-01-13 11:30:00,
2013-01-13 11:35:00,35.3,31.2,30.11,South,174,0.0,1.0,85,0.00,,,0.00,93,WeatherCatV1.13B101,2013-01-13 11:35:00,
2013-01-13 11:40:00,35.4,31.3,30.11,South,169,2.0,2.0,85,0.00,,,0.00,74,WeatherCatV1.13B101,2013-01-13 11:40:00,
2013-01-13 11:45:00,35.4,31.3,30.11,SSE,153,1.0,1.0,85,0.00,,,0.00,76,WeatherCatV1.13B101,2013-01-13 11:45:00,
2013-01-13 11:50:00,35.4,31.6,30.11,ESE,123,0.0,1.0,86,0.00,,,0.00,79,WeatherCatV1.13B101,2013-01-13 11:50:00,
2013-01-13 11:55:00,35.4,31.3,30.11,SSE,165,0.0,1.0,85,0.00,,,0.00,74,WeatherCatV1.13B101,2013-01-13 11:55:00,
2013-01-13 12:00:00,35.4,31.6,30.11,SSW,204,1.0,1.0,86,0.00,,,0.00,70,WeatherCatV1.13B101,2013-01-13 12:00:00,
2013-01-13 12:05:00,35.5,31.7,30.11,WSW,247,0.0,0.0,86,0.00,,,0.00,77,WeatherCatV1.13B101,2013-01-13 12:05:00,
2013-01-13 12:10:00,35.4,31.6,30.11,North,0,1.0,1.0,86,0.00,,,0.00,74,WeatherCatV1.13B101,2013-01-13 12:10:00,
2013-01-13 12:15:00,35.4,31.6,30.11,NNW,334,2.0,2.0,86,0.00,,,0.00,88,WeatherCatV1.13B101,2013-01-13 12:15:00,
2013-01-13 12:20:00,35.4,31.6,30.11,NW,318,1.0,1.0,86,0.00,,,0.00,95,WeatherCatV1.13B101,2013-01-13 12:20:00,
2013-01-13 12:25:00,35.5,31.7,30.11,NW,317,0.0,1.0,86,0.00,,,0.00,67,WeatherCatV1.13B101,2013-01-13 12:25:00,
2013-01-13 12:30:00,35.5,31.7,30.11,SSE,159,0.0,1.0,86,0.00,,,0.00,70,WeatherCatV1.13B101,2013-01-13 12:30:00,
2013-01-13 12:35:00,35.6,31.8,30.11,SSW,207,0.0,0.0,86,0.00,,,0.00,63,WeatherCatV1.13B101,2013-01-13 12:35:00,
2013-01-13 12:40:00,35.6,31.8,30.11,NW,312,0.0,1.0,86,0.00,,,0.00,60,WeatherCatV1.13B101,2013-01-13 12:40:00,
2013-01-13 12:45:00,35.6,31.8,30.11,WNW,292,1.0,2.0,86,0.00,,,0.00,62,WeatherCatV1.13B101,2013-01-13 12:45:00,
2013-01-13 12:50:00,35.5,31.7,30.11,WNW,292,0.0,0.0,86,0.00,,,0.00,67,WeatherCatV1.13B101,2013-01-13 12:50:00,
2013-01-13 12:55:00,35.6,31.8,30.11,WNW,292,0.0,1.0,86,0.00,,,0.00,63,WeatherCatV1.13B101,2013-01-13 12:55:00,
2013-01-13 13:00:00,35.6,31.8,30.11,WNW,292,0.0,1.0,86,0.00,,,0.00,63,WeatherCatV1.13B101,2013-01-13 13:00:00,
2013-01-13 13:05:00,35.6,31.8,30.11,WNW,292,0.0,1.0,86,0.00,,,0.00,65,WeatherCatV1.13B101,2013-01-13 13:05:00,
2013-01-13 13:10:00,35.6,31.8,30.11,ENE,71,0.0,1.0,86,0.00,,,0.00,70,WeatherCatV1.13B101,2013-01-13 13:10:00,
2013-01-13 13:15:00,35.7,31.9,30.11,SSE,151,0.0,0.0,86,0.00,,,0.00,74,WeatherCatV1.13B101,2013-01-13 13:15:00,
2013-01-13 13:20:00,35.6,31.8,30.11,SSE,159,0.0,1.0,86,0.00,,,0.00,62,WeatherCatV1.13B101,2013-01-13 13:20:00,
2013-01-13 13:25:00,35.7,31.9,30.11,NNW,329,0.0,0.0,86,0.00,,,0.00,53,WeatherCatV1.13B101,2013-01-13 13:25:00,
2013-01-13 13:30:00,35.6,31.8,30.11,NNW,329,0.0,1.0,86,0.00,,,0.00,47,WeatherCatV1.13B101,2013-01-13 13:30:00,
2013-01-13 13:35:00,35.6,31.8,30.11,SSW,192,0.0,3.0,86,0.00,,,0.00,46,WeatherCatV1.13B101,2013-01-13 13:35:00,
2013-01-13 13:40:00,35.5,31.7,30.11,NNW,338,0.0,2.0,86,0.00,,,0.00,47,WeatherCatV1.13B101,2013-01-13 13:40:00,
2013-01-13 13:45:00,35.5,31.7,30.11,NNW,331,0.0,3.0,86,0.00,,,0.00,46,WeatherCatV1.13B101,2013-01-13 13:45:00,
2013-01-13 13:50:00,35.4,31.6,30.11,North,351,0.0,1.0,86,0.00,,,0.00,46,WeatherCatV1.13B101,2013-01-13 13:50:00,
2013-01-13 13:55:00,35.3,31.5,30.11,West,276,0.0,1.0,86,0.00,,,0.00,46,WeatherCatV1.13B101,2013-01-13 13:55:00,
2013-01-13 14:00:00,35.2,31.7,30.11,North,350,0.0,1.0,87,0.00,,,0.00,44,WeatherCatV1.13B101,2013-01-13 14:00:00,
2013-01-13 14:05:00,35.2,31.7,30.11,SE,136,0.0,1.0,87,0.00,,,0.00,42,WeatherCatV1.13B101,2013-01-13 14:05:00,
2013-01-13 14:10:00,35.1,31.6,30.11,NNW,342,0.0,2.0,87,0.00,,,0.00,40,WeatherCatV1.13B101,2013-01-13 14:10:00,
2013-01-13 14:15:00,35.1,31.6,30.11,NNW,327,0.0,2.0,87,0.00,,,0.00,39,WeatherCatV1.13B101,2013-01-13 14:15:00,
2013-01-13 14:20:00,35.1,31.6,30.11,South,175,0.0,1.0,87,0.00,,,0.00,39,WeatherCatV1.13B101,2013-01-13 14:20:00,
2013-01-13 14:25:00,35.0,31.5,30.11,SE,140,1.0,1.0,87,0.00,,,0.00,44,WeatherCatV1.13B101,2013-01-13 14:25:00,
2013-01-13 14:30:00,35.1,31.6,30.10,SW,214,0.0,1.0,87,0.00,,,0.00,49,WeatherCatV1.13B101,2013-01-13 14:30:00,
2013-01-13 14:35:00,35.1,31.6,30.11,South,175,0.0,1.0,87,0.00,,,0.00,51,WeatherCatV1.13B101,2013-01-13 14:35:00,
2013-01-13 14:40:00,35.2,31.7,30.11,South,175,1.0,1.0,87,0.00,,,0.00,40,WeatherCatV1.13B101,2013-01-13 14:40:00,
2013-01-13 14:45:00,35.3,31.8,30.11,NE,41,0.0,2.0,87,0.00,,,0.00,39,WeatherCatV1.13B101,2013-01-13 14:45:00,
2013-01-13 14:50:00,35.3,31.5,30.11,NW,323,0.0,1.0,86,0.00,,,0.00,33,WeatherCatV1.13B101,2013-01-13 14:50:00,
2013-01-13 14:55:00,35.4,31.6,30.11,NW,323,0.0,1.0,86,0.00,,,0.00,28,WeatherCatV1.13B101,2013-01-13 14:55:00,
2013-01-13 15:00:00,35.4,31.6,30.11,NW,325,0.0,0.0,86,0.00,,,0.00,19,WeatherCatV1.13B101,2013-01-13 15:00:00,
2013-01-13 15:05:00,35.4,31.6,30.11,NW,325,0.0,0.0,86,0.00,,,0.00,21,WeatherCatV1.13B101,2013-01-13 15:05:00,
2013-01-13 15:10:00,35.4,31.3,30.11,NW,324,0.0,1.0,85,0.00,,,0.00,19,WeatherCatV1.13B101,2013-01-13 15:10:00,
2013-01-13 15:15:00,35.4,31.3,30.12,NW,325,0.0,1.0,85,0.00,,,0.00,16,WeatherCatV1.13B101,2013-01-13 15:15:00,
2013-01-13 15:20:00,35.4,31.3,30.11,NW,325,0.0,0.0,85,0.00,,,0.00,14,WeatherCatV1.13B101,2013-01-13 15:20:00,
2013-01-13 15:25:00,35.3,31.2,30.12,NW,325,0.0,0.0,85,0.00,,,0.00,14,WeatherCatV1.13B101,2013-01-13 15:25:00,
2013-01-13 15:30:00,35.2,31.2,30.12,NW,325,0.0,0.0,85,0.00,,,0.00,23,WeatherCatV1.13B101,2013-01-13 15:30:00,
2013-01-13 15:35:00,35.1,31.1,30.12,NW,325,0.0,0.0,85,0.00,,,0.00,25,WeatherCatV1.13B101,2013-01-13 15:35:00,
2013-01-13 15:40:00,35.0,31.0,30.12,NW,325,0.0,0.0,85,0.00,,,0.00,16,WeatherCatV1.13B101,2013-01-13 15:40:00,
2013-01-13 15:45:00,35.0,31.0,30.13,NW,318,0.0,1.0,85,0.00,,,0.00,12,WeatherCatV1.13B101,2013-01-13 15:45:00,
2013-01-13 15:50:00,34.8,30.8,30.13,NW,325,1.0,3.0,85,0.00,,,0.00,7,WeatherCatV1.13B101,2013-01-13 15:50:00,
2013-01-13 15:55:00,34.8,31.0,30.13,NNE,14,0.0,2.0,86,0.00,,,0.00,7,WeatherCatV1.13B101,2013-01-13 15:55:00,
2013-01-13 16:00:00,34.7,30.9,30.13,North,355,0.0,1.0,86,0.00,,,0.00,5,WeatherCatV1.13B101,2013-01-13 16:00:00,
2013-01-13 16:05:00,34.6,30.9,30.13,ESE,121,0.0,0.0,86,0.00,,,0.00,7,WeatherCatV1.13B101,2013-01-13 16:05:00,
2013-01-13 16:10:00,34.6,30.9,30.13,ESE,121,0.0,1.0,86,0.00,,,0.00,0,WeatherCatV1.13B101,2013-01-13 16:10:00,
2013-01-13 16:15:00,34.5,30.8,30.13,WNW,290,0.0,0.0,86,0.00,,,0.00,0,WeatherCatV1.13B101,2013-01-13 16:15:00,
2013-01-13 16:20:00,34.4,30.7,30.13,WNW,290,0.0,0.0,86,0.00,,,0.00,0,WeatherCatV1.13B101,2013-01-13 16:20:00,
2013-01-13 16:25:00,34.4,30.7,30.13,WNW,290,0.0,0.0,86,0.00,,,0.00,0,WeatherCatV1.13B101,2013-01-13 16:25:00,
2013-01-13 16:30:00,34.4,30.7,30.13,WNW,290,0.0,1.0,86,0.00,,,0.00,0,WeatherCatV1.13B101,2013-01-13 16:30:00,
2013-01-13 16:35:00,34.4,30.7,30.13,South,190,0.0,0.0,86,0.00,,,0.00,0,WeatherCatV1.13B101,2013-01-13 16:35:00,
2013-01-13 16:40:00,34.4,30.7,30.13,SSW,202,0.0,0.0,86,0.00,,,0.00,0,WeatherCatV1.13B101,2013-01-13 16:40:00,
2013-01-13 16:45:00,34.4,30.4,30.13,SSW,202,0.0,1.0,85,0.00,,,0.00,0,WeatherCatV1.13B101,2013-01-13 16:45:00,
2013-01-13 16:50:00,34.4,30.4,30.13,SSW,192,0.0,1.0,85,0.00,,,0.00,0,WeatherCatV1.13B101,2013-01-13 16:50:00,
2013-01-13 16:55:00,34.4,30.4,30.13,SSW,192,0.0,0.0,85,0.00,,,0.00,0,WeatherCatV1.13B101,2013-01-13 16:55:00,
2013-01-13 17:00:00,34.4,30.1,30.14,South,188,0.0,0.0,84,0.00,,,0.00,0,WeatherCatV1.13B101,2013-01-13 17:00:00,
2013-01-13 17:05:00,34.5,30.2,30.14,North,355,0.0,0.0,84,0.00,,,0.00,0,WeatherCatV1.13B101,2013-01-13 17:05:00,
2013-01-13 17:10:00,34.4,30.1,30.14,North,355,0.0,0.0,84,0.00,,,0.00,0,WeatherCatV1.13B101,2013-01-13 17:10:00,
2013-01-13 17:15:00,34.4,30.1,30.14,North,355,0.0,0.0,84,0.00,,,0.00,0,WeatherCatV1.13B101,2013-01-13 17:15:00,
2013-01-13 17:20:00,34.3,30.3,30.13,North,355,0.0,0.0,85,0.00,,,0.00,0,WeatherCatV1.13B101,2013-01-13 17:20:00,
2013-01-13 17:25:00,34.2,30.2,30.14,North,355,0.0,1.0,85,0.00,,,0.00,0,WeatherCatV1.13B101,2013-01-13 17:25:00,
2013-01-13 17:30:00,34.1,30.1,30.13,North,355,0.0,0.0,85,0.00,,,0.00,0,WeatherCatV1.13B101,2013-01-13 17:30:00,
2013-01-13 17:35:00,34.0,30.0,30.13,North,355,0.0,1.0,85,0.00,,,0.00,0,WeatherCatV1.13B101,2013-01-13 17:35:00,
2013-01-13 17:40:00,33.9,30.2,30.13,North,355,0.0,1.0,86,0.00,,,0.00,0,WeatherCatV1.13B101,2013-01-13 17:40:00,
2013-01-13 17:45:00,33.7,30.0,30.13,North,355,0.0,0.0,86,0.00,,,0.00,0,WeatherCatV1.13B101,2013-01-13 17:45:00,
2013-01-13 17:50:00,33.6,30.2,30.13,North,355,0.0,0.0,87,0.00,,,0.00,0,WeatherCatV1.13B101,2013-01-13 17:50:00,
2013-01-13 17:55:00,33.6,30.2,30.13,North,355,0.0,0.0,87,0.00,,,0.00,0,WeatherCatV1.13B101,2013-01-13 17:55:00,
2013-01-13 18:00:00,33.5,30.1,30.13,North,355,0.0,0.0,87,0.00,,,0.00,0,WeatherCatV1.13B101,2013-01-13 18:00:00,
2013-01-13 18:05:00,33.5,30.1,30.13,North,355,0.0,0.0,87,0.00,,,0.00,0,WeatherCatV1.13B101,2013-01-13 18:05:00,
2013-01-13 18:10:00,33.4,30.0,30.13,North,355,0.0,1.0,87,0.00,,,0.00,0,WeatherCatV1.13B101,2013-01-13 18:10:00,
2013-01-13 18:15:00,33.3,29.9,30.13,North,355,0.0,0.0,87,0.00,,,0.00,0,WeatherCatV1.13B101,2013-01-13 18:15:00,
2013-01-13 18:20:00,33.3,29.9,30.13,North,355,0.0,0.0,87,0.00,,,0.00,0,WeatherCatV1.13B101,2013-01-13 18:20:00,
2013-01-13 18:25:00,33.3,29.9,30.13,North,355,0.0,0.0,87,0.00,,,0.00,0,WeatherCatV1.13B101,2013-01-13 18:25:00,
2013-01-13 18:30:00,33.3,29.9,30.13,North,355,0.0,0.0,87,0.00,,,0.00,0,WeatherCatV1.13B101,2013-01-13 18:30:00,
2013-01-13 18:35:00,33.2,29.8,30.13,North,355,0.0,0.0,87,0.00,,,0.00,0,WeatherCatV1.13B101,2013-01-13 18:35:00,
2013-01-13 18:40:00,33.2,29.5,30.13,North,355,0.0,0.0,86,0.00,,,0.00,0,WeatherCatV1.13B101,2013-01-13 18:40:00,
2013-01-13 18:45:00,33.2,29.5,30.13,North,355,0.0,0.0,86,0.00,,,0.00,0,WeatherCatV1.13B101,2013-01-13 18:45:00,
2013-01-13 18:50:00,33.1,29.4,30.13,North,355,0.0,0.0,86,0.00,,,0.00,0,WeatherCatV1.13B101,2013-01-13 18:50:00,
2013-01-13 18:55:00,33.1,29.4,30.13,North,355,0.0,0.0,86,0.00,,,0.00,0,WeatherCatV1.13B101,2013-01-13 18:55:00,
2013-01-13 19:00:00,33.1,29.4,30.13,North,355,0.0,0.0,86,0.00,,,0.00,0,WeatherCatV1.13B101,2013-01-13 19:00:00,
2013-01-13 19:05:00,33.1,29.4,30.13,North,355,0.0,0.0,86,0.00,,,0.00,0,WeatherCatV1.13B101,2013-01-13 19:05:00,
2013-01-13 19:10:00,33.1,29.4,30.14,North,355,0.0,0.0,86,0.00,,,0.00,0,WeatherCatV1.13B101,2013-01-13 19:10:00,
2013-01-13 19:15:00,33.1,29.4,30.14,North,355,0.0,1.0,86,0.00,,,0.00,0,WeatherCatV1.13B101,2013-01-13 19:15:00,
2013-01-13 19:20:00,33.1,29.4,30.14,North,355,0.0,0.0,86,0.00,,,0.00,0,WeatherCatV1.13B101,2013-01-13 19:20:00,
2013-01-13 19:25:00,33.1,29.4,30.14,North,355,0.0,0.0,86,0.00,,,0.00,0,WeatherCatV1.13B101,2013-01-13 19:25:00,
2013-01-13 19:30:00,33.1,29.4,30.13,North,355,0.0,0.0,86,0.00,,,0.00,0,WeatherCatV1.13B101,2013-01-13 19:30:00,
2013-01-13 19:35:00,33.2,29.5,30.13,North,355,0.0,0.0,86,0.00,,,0.00,0,WeatherCatV1.13B101,2013-01-13 19:35:00,
2013-01-13 19:40:00,33.2,29.5,30.13,North,355,0.0,0.0,86,0.00,,,0.00,0,WeatherCatV1.13B101,2013-01-13 19:40:00,
2013-01-13 19:45:00,33.2,29.5,30.13,North,355,0.0,0.0,86,0.00,,,0.00,0,WeatherCatV1.13B101,2013-01-13 19:45:00,
2013-01-13 19:50:00,33.1,29.4,30.13,North,355,0.0,0.0,86,0.00,,,0.00,0,WeatherCatV1.13B101,2013-01-13 19:50:00,
2013-01-13 19:55:00,33.0,29.3,30.13,North,355,0.0,0.0,86,0.00,,,0.00,0,WeatherCatV1.13B101,2013-01-13 19:55:00,
2013-01-13 20:00:00,33.0,29.3,30.13,North,355,0.0,1.0,86,0.00,,,0.00,0,WeatherCatV1.13B101,2013-01-13 20:00:00,
2013-01-13 20:05:00,33.0,29.3,30.13,North,355,0.0,1.0,86,0.00,,,0.00,0,WeatherCatV1.13B101,2013-01-13 20:05:00,
2013-01-13 20:10:00,33.0,29.3,30.12,North,355,0.0,1.0,86,0.00,,,0.00,0,WeatherCatV1.13B101,2013-01-13 20:10:00,
2013-01-13 20:15:00,33.0,29.3,30.12,North,355,0.0,0.0,86,0.00,,,0.00,0,WeatherCatV1.13B101,2013-01-13 20:15:00,
2013-01-13 20:20:00,33.0,29.3,30.12,North,355,0.0,1.0,86,0.00,,,0.00,0,WeatherCatV1.13B101,2013-01-13 20:20:00,
2013-01-13 20:25:00,33.0,29.3,30.12,North,355,0.0,0.0,86,0.00,,,0.00,0,WeatherCatV1.13B101,2013-01-13 20:25:00,
2013-01-13 20:30:00,33.1,29.4,30.12,North,355,0.0,0.0,86,0.00,,,0.00,0,WeatherCatV1.13B101,2013-01-13 20:30:00,
2013-01-13 20:35:00,33.1,29.4,30.12,North,355,0.0,0.0,86,0.00,,,0.00,0,WeatherCatV1.13B101,2013-01-13 20:35:00,
2013-01-13 20:40:00,33.1,29.4,30.12,North,355,0.0,0.0,86,0.00,,,0.00,0,WeatherCatV1.13B101,2013-01-13 20:40:00,
2013-01-13 20:45:00,33.1,29.4,30.12,North,355,0.0,0.0,86,0.00,,,0.00,0,WeatherCatV1.13B101,2013-01-13 20:45:00,
2013-01-13 20:50:00,33.1,29.4,30.12,North,355,0.0,0.0,86,0.00,,,0.00,0,WeatherCatV1.13B101,2013-01-13 20:50:00,
2013-01-13 20:55:00,33.1,29.4,30.12,North,355,0.0,0.0,86,0.00,,,0.00,0,WeatherCatV1.13B101,2013-01-13 20:55:00,
2013-01-13 21:00:00,33.1,29.4,30.12,North,355,0.0,0.0,86,0.00,,,0.00,0,WeatherCatV1.13B101,2013-01-13 21:00:00,
2013-01-13 21:05:00,33.1,29.4,30.12,North,355,0.0,0.0,86,0.00,,,0.00,0,WeatherCatV1.13B101,2013-01-13 21:05:00,
2013-01-13 21:10:00,33.1,29.4,30.12,North,355,0.0,0.0,86,0.00,,,0.00,0,WeatherCatV1.13B101,2013-01-13 21:10:00,
2013-01-13 21:15:00,33.1,29.4,30.12,North,355,0.0,0.0,86,0.00,,,0.00,0,WeatherCatV1.13B101,2013-01-13 21:15:00,
2013-01-13 21:20:00,33.1,29.4,30.12,North,355,0.0,0.0,86,0.00,,,0.00,0,WeatherCatV1.13B101,2013-01-13 21:20:00,
2013-01-13 21:25:00,33.1,29.4,30.12,North,355,0.0,1.0,86,0.00,,,0.00,0,WeatherCatV1.13B101,2013-01-13 21:25:00,
2013-01-13 21:30:00,33.1,29.4,30.12,North,355,0.0,0.0,86,0.00,,,0.00,0,WeatherCatV1.13B101,2013-01-13 21:30:00,
2013-01-13 21:35:00,33.0,29.3,30.12,North,355,0.0,0.0,86,0.00,,,0.00,0,WeatherCatV1.13B101,2013-01-13 21:35:00,
2013-01-13 21:40:00,33.0,29.3,30.12,North,355,0.0,0.0,86,0.00,,,0.00,0,WeatherCatV1.13B101,2013-01-13 21:40:00,
2013-01-13 21:45:00,32.9,29.2,30.11,North,355,0.0,1.0,86,0.00,,,0.00,0,WeatherCatV1.13B101,2013-01-13 21:45:00,
2013-01-13 21:50:00,32.8,29.1,30.11,North,355,0.0,0.0,86,0.00,,,0.00,0,WeatherCatV1.13B101,2013-01-13 21:50:00,
2013-01-13 21:55:00,32.7,29.0,30.11,North,355,0.0,0.0,86,0.00,,,0.00,0,WeatherCatV1.13B101,2013-01-13 21:55:00,
2013-01-13 22:00:00,32.6,28.9,30.11,North,355,0.0,0.0,86,0.00,,,0.00,0,WeatherCatV1.13B101,2013-01-13 22:00:00,
2013-01-13 22:05:00,32.5,28.8,30.11,North,355,0.0,0.0,86,0.00,,,0.00,0,WeatherCatV1.13B101,2013-01-13 22:05:00,
2013-01-13 22:10:00,32.4,29.0,30.11,North,355,0.0,0.0,87,0.00,,,0.00,0,WeatherCatV1.13B101,2013-01-13 22:10:00,
2013-01-13 22:15:00,32.3,28.9,30.11,North,355,0.0,0.0,87,0.00,,,0.00,0,WeatherCatV1.13B101,2013-01-13 22:15:00,
2013-01-13 22:20:00,32.3,28.9,30.11,North,355,0.0,1.0,87,0.00,,,0.00,0,WeatherCatV1.13B101,2013-01-13 22:20:00,
2013-01-13 22:25:00,32.2,29.1,30.11,North,355,0.0,0.0,88,0.00,,,0.00,0,WeatherCatV1.13B101,2013-01-13 22:25:00,
2013-01-13 22:30:00,32.2,29.1,30.11,North,355,0.0,0.0,88,0.00,,,0.00,0,WeatherCatV1.13B101,2013-01-13 22:30:00,
2013-01-13 22:35:00,32.3,29.2,30.11,North,355,0.0,1.0,88,0.00,,,0.00,0,WeatherCatV1.13B101,2013-01-13 22:35:00,
2013-01-13 22:40:00,32.3,28.9,30.11,North,355,0.0,0.0,87,0.00,,,0.00,0,WeatherCatV1.13B101,2013-01-13 22:40:00,
2013-01-13 22:45:00,32.4,29.0,30.11,North,355,0.0,0.0,87,0.00,,,0.00,0,WeatherCatV1.13B101,2013-01-13 22:45:00,
2013-01-13 22:50:00,32.4,29.0,30.11,North,355,0.0,0.0,87,0.00,,,0.00,0,WeatherCatV1.13B101,2013-01-13 22:50:00,
2013-01-13 22:55:00,32.4,29.0,30.11,North,355,0.0,0.0,87,0.00,,,0.00,0,WeatherCatV1.13B101,2013-01-13 22:55:00,
2013-01-13 23:00:00,32.4,29.0,30.11,North,355,0.0,0.0,87,0.00,,,0.00,0,WeatherCatV1.13B101,2013-01-13 23:00:00,
2013-01-13 23:05:00,32.5,29.1,30.11,North,355,0.0,0.0,87,0.00,,,0.00,0,WeatherCatV1.13B101,2013-01-13 23:05:00,
2013-01-13 23:10:00,32.5,29.1,30.11,North,355,0.0,0.0,87,0.00,,,0.00,0,WeatherCatV1.13B101,2013-01-13 23:10:00,
2013-01-13 23:15:00,32.5,29.1,30.10,North,355,0.0,1.0,87,0.00,,,0.00,0,WeatherCatV1.13B101,2013-01-13 23:15:00,
2013-01-13 23:20:00,32.5,29.1,30.10,North,355,0.0,0.0,87,0.00,,,0.00,0,WeatherCatV1.13B101,2013-01-13 23:20:00,
2013-01-13 23:25:00,32.4,29.0,30.10,North,355,0.0,0.0,87,0.00,,,0.00,0,WeatherCatV1.13B101,2013-01-13 23:25:00,
2013-01-13 23:30:00,32.4,29.0,30.10,North,355,0.0,0.0,87,0.00,,,0.00,0,WeatherCatV1.13B101,2013-01-13 23:30:00,
2013-01-13 23:35:00,32.4,29.0,30.10,North,355,0.0,0.0,87,0.00,,,0.00,0,WeatherCatV1.13B101,2013-01-13 23:35:00,
2013-01-13 23:40:00,32.3,29.2,30.10,North,355,0.0,0.0,88,0.00,,,0.00,0,WeatherCatV1.13B101,2013-01-13 23:40:00,
2013-01-13 23:45:00,32.3,29.2,30.09,North,355,0.0,0.0,88,0.00,,,0.00,0,WeatherCatV1.13B101,2013-01-13 23:45:00,
2013-01-13 23:50:00,32.3,29.2,30.09,North,355,0.0,0.0,88,0.00,,,0.00,0,WeatherCatV1.13B101,2013-01-13 23:50:00,
2013-01-13 23:55:00,32.3,29.2,30.09,North,355,0.0,0.0,88,0.00,,,0.00,0,WeatherCatV1.13B101,2013-01-13 23:55:00,